Location: ???????
(55.3754°N, 39.3545°E)
Time: 05:25:51
(UTC+00:00)

IRS-1C Rocket - Pass Details

Date: 14 April 2026
Orbit: 799 x 804 km, 98.7° (Epoch: 10 May)

Event Time Altitude Azimuth Distance (km) Brightness Sun altitude
Exits shadow 19:01:20 26° 182° (S) 1,548 5.1 -18.6°
Maximum altitude 19:04:20 65° 257° (WSW) 887 4.3 -18.9°
Drops below altitude 10° 19:09:36 10° 339° (NNW) 2,398 7.7 -19.3°
Sets 19:11:59 0° 343° (NNW) 3,333 8.7 -19.5°
